Regional Weather Roundup
Issued by NWS Sioux Falls, SD

Home | Current Version | Previous Version | Graphics & Text | Print | Product List | Glossary Off
Versions: 1 2 3 4 5 6 7 8 9 10 11 12 13 14 15 16 17 18 19 20 21 22 23 24 25 26 27 28 29 30 31 32 33 34 35 36 37 38 39 40 41 42 43 44 45 46 47 48 49 50

000
ASUS43 KFSD 150410
RWRFSD

WEATHER ROUNDUP FOR SE SOUTH DAKOTA/SW MINNESOTA/NW IOWA
NATIONAL WEATHER SERVICE SIOUX FALLS SD
1000 PM CST THU DEC 14 2017

NOTE: "FAIR" INDICATES FEW OR NO CLOUDS BELOW 12,000 FEET WITH NO
SIGNIFICANT WEATHER AND OR OBSTRUCTIONS TO VISIBILITY.


SDZ038>040-050-052>070-150500-
SOUTHEAST SOUTH DAKOTA

CITY           SKY/WX    TMP DP  RH WIND       PRES   REMARKS
BROOKINGS      CLOUDY    26  23  88 W7        30.05F WCI  18
CHAMBERLAIN    CLOUDY    32  30  91 SW6       30.12F WCI  26
HURON          CLOUDY    30  26  85 W8        30.09F WCI  22
MADISON        CLOUDY    27  27 100 W9        30.06F WCI  17
MITCHELL       CLOUDY    30  25  81 W7        30.12F WCI  23
SIOUX FALLS    CLOUDY    28  23  81 W7        30.09S WCI  21
WINNER         CLOUDY    33  28  81 W10       30.14F WCI  25
YANKTON        CLOUDY    29  26  89 NW6       30.14F WCI  23
$$

MNZ071-072-080-081-089-090-097-098-150500-
SOUTHWEST MINNESOTA

CITY           SKY/WX    TMP DP  RH WIND       PRES   REMARKS
FAIRMONT       MOCLDY    25  19  78 NW13      30.06S WCI  14
JACKSON        CLOUDY    27  21  80 MISG      30.06S
LUVERNE        CLOUDY    27  21  80 W5        30.09S WCI  21
MARSHALL       CLOUDY    25  23  92 W7        30.05F WCI  17
MONTEVIDEO     CLOUDY    27  21  80 W5        30.03F WCI  21
PIPESTONE      CLOUDY    25  21  86 W8        30.05S WCI  16
REDWOOD FALLS  CLOUDY    26  22  84 W9        30.04F WCI  17
WINDOM           N/A     25  12  58 W9        30.04F WCI  15
WORTHINGTON    CLOUDY    24  22  91 W7        30.06F WCI  16
$$

IAZ001>003-012>014-020>022-031-032-NEZ013-014-SDZ071-150500-
NORTHWEST IOWA

CITY           SKY/WX    TMP DP  RH WIND       PRES   REMARKS
CHEROKEE       MOCLDY    29  23  77 N10G17    30.11R WCI  20
DENISON        CLOUDY    32  30  93 NW10      30.10S WCI  24
ESTHERVILLE    PTCLDY    22  20  92 NW10      30.06F WCI  11
LE MARS        CLOUDY    28  25  86 NW5       30.12R WCI  23
ORANGE CITY    MOCLDY    28  27  93 NW5       30.10S WCI  23
SHELDON        CLOUDY    28  23  80 NW8       30.08S WCI  20
SIOUX CITY     CLEAR     32  24  72 NW17      30.13R WCI  21
SPENCER        MOCLDY    23  20  88 NW5       30.08F WCI  17
STORM LAKE     CLOUDY    30  23  74 N22G30    30.08R WCI  17
$$

ABBREVIATIONS USED IN REMARKS
   TC - TEMPERATURE IN CELSIUS
  WCI - WIND CHILL INDEX
   HX - HEAT INDEX
  VSB - VISIBILITY





USA.gov is the U.S. government's official web portal to all federal, state and local government web resources and services.